Weather in Fahy

Switzerland     47°25′05″N   6°57′05″E
temp.,
°C
wind,
m/s
gust,
m/s
humid.,
%
clouds,
%
prec.,
mm/h
press.,
hPa
HPBL,
m
16 june, wed
wed1623:00+18sse118195 0.0 101711
02:00+17sse118179 0.0 101711
05:00+15se1180100 0.0 101611
08:00+19ene1277100 0.0 101593
11:00+23ne226952 0.0 1014343
14:00+26nne216540 0.1 1013456
17:00+28se016066 0.1 1012769
20:00+26w117772 0.1 101211
17 june, thu
thu1723:00+20sse22835 0.0 101312
02:00+18se118395 0.0 101311
05:00+17ssw228199 0.0 101419
08:00+21se1178100 0.0 101458
11:00+24nne2270100 0.0 1014467
14:00+26nne226895 0.0 1013601
17:00+28ene457174 0.1 1011520
20:00+25ene368493 0.4 1011137
18 june, fri
fri1823:00+20sw229189 0.3 101425
02:00+17sw239189 1.9 101553
05:00+17ese3492100 1.0 101466
08:00+19ene238872 1.1 1014126
11:00+23ne217448 0.0 1014486
14:00+26wnw226829 0.1 1014815
17:00+26w4572100 1.5 1013703
20:00+24ssw228263 3.3 101523
19 june, sat
sat1923:00+18se22875 0.3 101619
02:00+17ssw1189100 0.6 101611
05:00+16sw1193100 0.0 101813
08:00+19w0088100 0.0 101788
11:00+23ne2278100 0.0 1016437
14:00+26ne336811 0.0 1015699
17:00+26ne587395 0.0 1012555
20:00+24ene358568 0.0 1011129
20 june, sun
sun2023:00+20e2286100 0.0 101146
02:00+19wsw228460 0.0 101218
05:00+20s227993 0.0 101121
08:00+21se2486100 0.2 1010174
11:00+24nne2277100 0.1 1010546
14:00+20wnw5895100 5.9 1012461
17:00+19nnw3695100 1.7 1011355
20:00+18e2396100 2.8 101194